Location: Barrialito
(10.3588°N, 66.9747°W)
Time: 15:39:20
(UTC+00:00)

Cosmos 1862 Rocket - Pass Details

Date: 03 July 2022
Orbit: 603 x 633 km, 82.5° (Epoch: 13 August)

Event Time Altitude Azimuth Distance (km) Brightness Sun altitude
Rises 08:33:30 0° 14° (NNE) 2,843 7.6 -22.2°
Reaches altitude 10° 08:36:00 10° 27° (NNE) 1,942 6.9 -21.7°
Maximum altitude 08:39:36 26° 84° (E) 1,195 5.7 -20.9°
Drops below altitude 10° 08:43:12 10° 142° (SE) 1,951 6.2 -20.2°
Sets 08:45:42 0° 154° (SSE) 2,859 6.9 -19.6°
